GMART PHMK-PHNL

Flight info

Callsign GMART
Flight time 0h 31m
Altitude 3100
Route PHMK / VRMIP / GRITL / PHNL
Aircraft C172/L-VGD/C

Departure

Time 2026-04-20 08:06
Airport Molokai Airport (PHMK)

Arrival

Time 2026-04-20 08:37
Airport Daniel K. Inouye International Airport (PHNL)
Time Latitude Longitude Altitude Speed Heading
2026-04-20 07:55 21.15486 -157.09384 446 ft 0 kts 208°
2026-04-20 08:00 21.15484 -157.09385 446 ft 3 kts 206°
2026-04-20 08:01 21.15430 -157.09382 446 ft 9 kts 217°
2026-04-20 08:01 21.15396 -157.09447 439 ft 12 kts 240°
2026-04-20 08:01 21.15348 -157.09539 441 ft 16 kts 242°
2026-04-20 08:01 21.15287 -157.09656 442 ft 20 kts 240°
2026-04-20 08:02 21.15212 -157.09794 430 ft 22 kts 242°
2026-04-20 08:02 21.15133 -157.09944 438 ft 23 kts 241°
2026-04-20 08:02 21.15061 -157.10079 437 ft 17 kts 240°
2026-04-20 08:02 21.15031 -157.10128 438 ft 3 kts 205°
2026-04-20 08:03 21.15021 -157.10127 441 ft 0 kts 152°
2026-04-20 08:03 21.15017 -157.10125 441 ft 3 kts 153°
2026-04-20 08:03 21.15013 -157.10123 441 ft 0 kts 153°
2026-04-20 08:04 21.14984 -157.10104 440 ft 8 kts 142°
2026-04-20 08:04 21.14984 -157.10072 434 ft 0 kts 59°
2026-04-20 08:05 21.15078 -157.09897 440 ft 54 kts 61°
2026-04-20 08:05 21.15326 -157.09443 530 ft 78 kts 59°
2026-04-20 08:05 21.15611 -157.08944 735 ft 82 kts 55°
2026-04-20 08:05 21.15946 -157.08410 914 ft 90 kts 60°
2026-04-20 08:06 21.16257 -157.07792 1103 ft 97 kts 60°
2026-04-20 08:06 21.16800 -157.07456 1295 ft 98 kts 344°
2026-04-20 08:06 21.17408 -157.07769 1499 ft 98 kts 333°
2026-04-20 08:06 21.18032 -157.08083 1704 ft 100 kts 333°
2026-04-20 08:07 21.18424 -157.08660 1896 ft 101 kts 282°
2026-04-20 08:07 21.18608 -157.09389 2119 ft 104 kts 285°
2026-04-20 08:07 21.18820 -157.10173 2319 ft 115 kts 285°
2026-04-20 08:07 21.19047 -157.11027 2504 ft 123 kts 285°
2026-04-20 08:08 21.19280 -157.11919 2688 ft 125 kts 285°
2026-04-20 08:08 21.19507 -157.12812 2864 ft 123 kts 284°
2026-04-20 08:08 21.19720 -157.13693 3041 ft 121 kts 284°
2026-04-20 08:08 21.19931 -157.14550 3203 ft 117 kts 284°
2026-04-20 08:09 21.20126 -157.15352 3368 ft 106 kts 284°
2026-04-20 08:09 21.20308 -157.16090 3528 ft 100 kts 284°
2026-04-20 08:09 21.20482 -157.16808 3595 ft 104 kts 284°
2026-04-20 08:09 21.20672 -157.17586 3598 ft 111 kts 284°
2026-04-20 08:10 21.20870 -157.18396 3603 ft 114 kts 283°
2026-04-20 08:10 21.21058 -157.19220 3606 ft 113 kts 283°
2026-04-20 08:10 21.21245 -157.20044 3607 ft 116 kts 283°
2026-04-20 08:10 21.21436 -157.20887 3609 ft 117 kts 283°
2026-04-20 08:11 21.21629 -157.21738 3609 ft 119 kts 283°
2026-04-20 08:11 21.21826 -157.22610 3600 ft 120 kts 283°
2026-04-20 08:11 21.22018 -157.23463 3599 ft 117 kts 283°
2026-04-20 08:11 21.22208 -157.24302 3597 ft 115 kts 283°
2026-04-20 08:12 21.22397 -157.25132 3596 ft 114 kts 283°
2026-04-20 08:12 21.22584 -157.25958 3594 ft 114 kts 283°
2026-04-20 08:12 21.22770 -157.26782 3594 ft 114 kts 283°
2026-04-20 08:12 21.22957 -157.27603 3594 ft 113 kts 283°
2026-04-20 08:13 21.23143 -157.28424 3594 ft 113 kts 283°
2026-04-20 08:13 21.23350 -157.29237 3596 ft 113 kts 288°
2026-04-20 08:13 21.23587 -157.30027 3596 ft 113 kts 286°
2026-04-20 08:13 21.23813 -157.30833 3596 ft 113 kts 286°
2026-04-20 08:14 21.24039 -157.31643 3596 ft 113 kts 286°
2026-04-20 08:14 21.24266 -157.32453 3596 ft 113 kts 286°
2026-04-20 08:14 21.24491 -157.33262 3596 ft 113 kts 286°
2026-04-20 08:14 21.24717 -157.34070 3596 ft 113 kts 286°
2026-04-20 08:15 21.24943 -157.34878 3596 ft 113 kts 286°
2026-04-20 08:15 21.25169 -157.35685 3596 ft 113 kts 286°
2026-04-20 08:15 21.25395 -157.36493 3589 ft 113 kts 286°
2026-04-20 08:15 21.25621 -157.37302 3596 ft 114 kts 286°
2026-04-20 08:16 21.25850 -157.38120 3598 ft 115 kts 286°
2026-04-20 08:16 21.26081 -157.38947 3599 ft 116 kts 286°
2026-04-20 08:16 21.26313 -157.39778 3600 ft 116 kts 286°
2026-04-20 08:16 21.26545 -157.40608 3601 ft 116 kts 286°
2026-04-20 08:17 21.26778 -157.41440 3601 ft 117 kts 286°
2026-04-20 08:17 21.27011 -157.42272 3601 ft 117 kts 286°
2026-04-20 08:17 21.27243 -157.43105 3601 ft 117 kts 286°
2026-04-20 08:17 21.27479 -157.43945 3603 ft 119 kts 286°
2026-04-20 08:18 21.27717 -157.44795 3605 ft 121 kts 286°
2026-04-20 08:18 21.27963 -157.45677 3608 ft 122 kts 286°
2026-04-20 08:18 21.28205 -157.46542 3609 ft 123 kts 286°
2026-04-20 08:18 21.28451 -157.47421 3605 ft 123 kts 286°
2026-04-20 08:19 21.28698 -157.48302 3607 ft 123 kts 286°
2026-04-20 08:19 21.28944 -157.49184 3607 ft 123 kts 286°
2026-04-20 08:19 21.29190 -157.50066 3607 ft 124 kts 286°
2026-04-20 08:19 21.29437 -157.50948 3607 ft 124 kts 286°
2026-04-20 08:20 21.29684 -157.51831 3607 ft 124 kts 286°
2026-04-20 08:20 21.29930 -157.52714 3607 ft 124 kts 286°
2026-04-20 08:20 21.30177 -157.53597 3607 ft 124 kts 286°
2026-04-20 08:20 21.30423 -157.54480 3607 ft 124 kts 286°
2026-04-20 08:21 21.30669 -157.55362 3607 ft 124 kts 286°
2026-04-20 08:21 21.30915 -157.56244 3607 ft 123 kts 286°
2026-04-20 08:21 21.31161 -157.57128 3607 ft 124 kts 286°
2026-04-20 08:21 21.31408 -157.58010 3607 ft 124 kts 286°
2026-04-20 08:22 21.31654 -157.58893 3607 ft 124 kts 286°
2026-04-20 08:22 21.31901 -157.59778 3607 ft 124 kts 286°
2026-04-20 08:22 21.32147 -157.60661 3607 ft 124 kts 286°
2026-04-20 08:22 21.32393 -157.61544 3607 ft 124 kts 286°
2026-04-20 08:23 21.32640 -157.62427 3607 ft 124 kts 286°
2026-04-20 08:23 21.32883 -157.63310 3607 ft 123 kts 284°
2026-04-20 08:23 21.33049 -157.64211 3607 ft 123 kts 280°
2026-04-20 08:23 21.33197 -157.65115 3607 ft 123 kts 277°
2026-04-20 08:24 21.33282 -157.66029 3606 ft 123 kts 275°
2026-04-20 08:24 21.33364 -157.66943 3607 ft 123 kts 275°
2026-04-20 08:24 21.33444 -157.67847 3607 ft 123 kts 275°
2026-04-20 08:24 21.33528 -157.68776 3607 ft 124 kts 275°
2026-04-20 08:25 21.33609 -157.69681 3609 ft 124 kts 275°
2026-04-20 08:25 21.33694 -157.70623 3613 ft 130 kts 275°
2026-04-20 08:25 21.33782 -157.71594 3618 ft 131 kts 275°
2026-04-20 08:25 21.33868 -157.72562 3612 ft 130 kts 275°
2026-04-20 08:26 21.33957 -157.73532 3609 ft 130 kts 275°
2026-04-20 08:26 21.34037 -157.74486 3606 ft 127 kts 275°
2026-04-20 08:26 21.34123 -157.75424 3603 ft 125 kts 275°
2026-04-20 08:26 21.34205 -157.76349 3601 ft 124 kts 275°
2026-04-20 08:27 21.34287 -157.77269 3602 ft 124 kts 275°
2026-04-20 08:27 21.34370 -157.78191 3598 ft 124 kts 275°
2026-04-20 08:27 21.34452 -157.79104 3601 ft 122 kts 275°
2026-04-20 08:27 21.34534 -157.80014 3601 ft 123 kts 275°
2026-04-20 08:28 21.34617 -157.80943 3518 ft 129 kts 275°
2026-04-20 08:28 21.34704 -157.81906 3382 ft 133 kts 275°
2026-04-20 08:28 21.34793 -157.82902 3249 ft 137 kts 275°
2026-04-20 08:28 21.34885 -157.83933 3090 ft 138 kts 275°
2026-04-20 08:29 21.34973 -157.84931 2939 ft 131 kts 275°
2026-04-20 08:29 21.35018 -157.85885 2794 ft 125 kts 270°
2026-04-20 08:29 21.35038 -157.86825 2640 ft 124 kts 272°
2026-04-20 08:29 21.35057 -157.87703 2481 ft 113 kts 271°
2026-04-20 08:30 21.35075 -157.88531 2328 ft 111 kts 271°
2026-04-20 08:30 21.35091 -157.89370 2171 ft 113 kts 271°
2026-04-20 08:30 21.35108 -157.90196 2015 ft 109 kts 271°
2026-04-20 08:30 21.35125 -157.90996 1855 ft 105 kts 271°
2026-04-20 08:31 21.35143 -157.91778 1708 ft 106 kts 271°
2026-04-20 08:31 21.35161 -157.92572 1558 ft 107 kts 271°
2026-04-20 08:31 21.35178 -157.93371 1406 ft 107 kts 271°
2026-04-20 08:31 21.35197 -157.94159 1260 ft 105 kts 271°
2026-04-20 08:32 21.35217 -157.94940 1103 ft 104 kts 271°
2026-04-20 08:32 21.35235 -157.95704 1011 ft 97 kts 271°
2026-04-20 08:32 21.35250 -157.96423 1008 ft 97 kts 271°
2026-04-20 08:32 21.35268 -157.97152 1006 ft 97 kts 271°
2026-04-20 08:33 21.34980 -157.97747 999 ft 99 kts 202°
2026-04-20 08:33 21.33641 -157.97757 999 ft 94 kts 179°
2026-04-20 08:33 21.33212 -157.97748 999 ft 92 kts 180°
2026-04-20 08:34 21.32635 -157.97521 1004 ft 89 kts 163°
2026-04-20 08:34 21.32024 -157.97394 1037 ft 86 kts 174°
2026-04-20 08:34 21.31422 -157.97312 922 ft 92 kts 174°
2026-04-20 08:34 21.30615 -157.97133 678 ft 82 kts 142°
2026-04-20 08:35 21.30497 -157.96776 536 ft 77 kts 75°
2026-04-20 08:35 21.30730 -157.96308 384 ft 68 kts 73°
2026-04-20 08:35 21.30702 -157.95789 329 ft 68 kts 103°
2026-04-20 08:35 21.30688 -157.95295 245 ft 67 kts 89°
2026-04-20 08:36 21.30687 -157.94805 181 ft 64 kts 88°
2026-04-20 08:36 21.30684 -157.94337 126 ft 62 kts 89°
2026-04-20 08:36 21.30685 -157.93880 65 ft 60 kts 90°
2026-04-20 08:36 21.30684 -157.93438 38 ft 60 kts 89°
2026-04-20 08:37 21.30679 -157.93025 10 ft 39 kts 89°
2026-04-20 08:37 21.30680 -157.92967 12 ft 0 kts 88°
2026-04-20 08:37 21.30687 -157.92893 13 ft 25 kts 104°
2026-04-20 08:38 21.30682 -157.92654 14 ft 37 kts 92°
2026-04-20 08:38 21.30687 -157.92403 20 ft 31 kts 88°
2026-04-20 08:38 21.30705 -157.92188 17 ft 27 kts 71°
2026-04-20 08:38 21.30778 -157.92029 17 ft 21 kts 58°
2026-04-20 08:39 21.30850 -157.91897 14 ft 20 kts 59°
2026-04-20 08:39 21.30931 -157.91794 13 ft 17 kts 360°
2026-04-20 08:39 21.30971 -157.91888 12 ft 14 kts 268°
2026-04-20 08:39 21.30969 -157.91985 13 ft 12 kts 268°
2026-04-20 08:40 21.30969 -157.92072 15 ft 12 kts 269°
2026-04-20 08:40 21.30969 -157.92164 16 ft 13 kts 270°
2026-04-20 08:40 21.30979 -157.92270 15 ft 16 kts 285°
2026-04-20 08:40 21.31039 -157.92375 13 ft 18 kts 318°
2026-04-20 08:41 21.31132 -157.92465 12 ft 18 kts 317°
2026-04-20 08:41 21.31219 -157.92553 11 ft 17 kts 316°
2026-04-20 08:41 21.31307 -157.92546 10 ft 14 kts 51°
2026-04-20 08:41 21.31366 -157.92462 8 ft 15 kts 53°
2026-04-20 08:42 21.31435 -157.92363 7 ft 18 kts 52°
2026-04-20 08:42 21.31477 -157.92255 8 ft 15 kts 152°
2026-04-20 08:42 21.31408 -157.92232 9 ft 4 kts 124°
2026-04-20 08:42 21.31402 -157.92226 9 ft 0 kts 139°